Vorticity
6 5 7 7 5 5 6 4 8 8 7 5 7 7 8 10 8 8 9 8 8 5 4 4 4 5 5 4 5 7 7 6 3 3 7 7 7 6
6 8 7 4 6 5 7 8 9 10 7 5 4 8 8 7 10 10 9 7 5 5 4 3 2 6 5 2 10 10 11 15 24 29 38 41 43 48
8 7 7 5 -1 6 10 9 5 7 6 9 10 8 9 9 9 5 4 4 2 1 1 4 8 6 3 14 26 38 46 50 51 48 40 36 33 31
8 7 -0 3 -2 11 5 4 7 7 9 8 9 10 9 8 4 4 4 3 2 1 6 3 13 25 40 47 43 36 24 3 8 10 10 9 10 18
0 4 6 7 11 5 4 8 8 9 9 11 8 8 5 5 6 4 -1 -1 2 3 5 36 48 34 23 16 11 11 10 4 8 14 24 20 19 19
-0 9 5 12 6 4 8 10 8 10 10 6 7 6 5 5 1 -4 1 2 6 37 46 32 19 17 20 21 20 20 19 16 14 11 25 13 9 11
8 19 2 6 4 9 10 9 11 8 6 6 6 6 4 1 2 5 2 23 55 27 21 27 17 16 15 16 19 19 19 18 14 11 19 4 12 9
3 7 5 5 12 7 9 11 5 6 6 7 6 3 1 4 4 7 45 48 32 15 9 10 8 14 16 16 13 13 15 20 16 11 15 8 7 11
5 6 10 8 7 8 11 4 6 6 8 6 4 3 2 6 18 53 33 13 12 12 9 15 17 21 16 17 13 12 18 23 23 11 14 14 8 12
10 8 6 7 10 10 3 6 8 5 6 1 3 6 9 31 54 31 -2 15 5 8 8 14 17 22 19 13 11 12 15 20 27 22 12 15 10 12
7 7 7 10 8 6 6 6 4 5 3 3 5 12 39 50 21 -2 14 12 8 10 9 14 26 22 20 12 11 12 12 16 28 27 27 13 14 13
7 9 12 9 5 7 5 4 4 4 4 6 21 49 37 15 5 11 8 9 10 15 10 21 26 19 25 25 3 5 9 11 21 29 34 12 13 12
12 11 5 6 6 4 5 5 4 5 5 23 53 24 10 7 6 7 10 11 15 20 20 19 21 26 29 31 14 11 15 14 15 20 35 23 15 12
6 5 5 6 5 4 5 7 7 6 31 54 25 10 8 4 6 11 10 17 23 21 18 18 31 32 28 19 18 18 20 14 13 19 23 26 21 17
5 5 4 3 4 6 6 3 10 42 56 21 10 9 4 4 9 9 21 25 23 15 14 18 22 19 18 24 28 23 23 16 10 22 25 27 20 19
5 4 4 5 6 3 7 20 54 56 17 10 10 4 2 7 7 24 25 20 20 19 11 15 15 18 23 19 20 19 11 14 12 18 11 19 18 16
5 5 6 6 6 17 36 64 48 13 9 6 9 6 5 7 21 24 17 17 17 23 24 16 10 8 8 45 16 15 21 15 21 18 12 9 8 16
6 10 16 24 35 61 54 33 11 6 8 13 5 3 8 17 26 21 21 22 18 12 15 15 16 15 5 -1 17 15 3 8 5 7 10 11 9 1
43 47 50 52 57 48 17 9 6 10 11 9 5 8 9 23 21 17 13 13 11 12 12 13 14 19 19 14 1 15 34 22 20 12 8 3 5 4
46 39 52 53 28 9 7 5 9 8 9 8 3 12 12 22 13 14 13 17 15 12 11 7 6 9 14 13 14 5 -4 11 16 20 15 12 14 13
54 51 31 10 7 5 7 7 11 11 9 9 6 14 8 19 13 16 16 11 9 7 5 8 6 8 14 13 10 9 10 8 22 13 14 13 12 14
23 8 7 7 6 6 6 8 10 12 12 8 10 12 8 13 16 14 15 11 12 9 6 7 10 12 16 16 18 22 24 21 3 11 18 21 23 15
11 8 6 7 4 2 4 11 11 13 12 8 10 10 11 12 13 12 13 16 12 8 7 12 13 20 16 17 29 25 10 6 15 11 11 16 13 9
Height
5700 5696 5692 5688 5684 5679 5675 5670 5665 5662 5659 5652 5645 5639 5634 5628 5622 5617 5610 5604 5598 5591 5584 5578 5572 5567 5560 5554 5547 5539 5531 5525 5520 5516 5510 5505 5501 5499
5690 5686 5681 5676 5671 5666 5661 5656 5651 5647 5643 5638 5631 5624 5618 5612 5606 5599 5592 5586 5578 5570 5562 5555 5547 5539 5532 5524 5514 5505 5496 5488 5481 5477 5471 5465 5462 5458
5679 5674 5669 5664 5659 5653 5648 5642 5637 5633 5628 5622 5614 5607 5600 5594 5588 5580 5572 5565 5557 5545 5536 5526 5516 5506 5497 5487 5477 5468 5461 5455 5449 5445 5441 5437 5434 5432
5667 5663 5658 5653 5646 5641 5636 5630 5624 5617 5612 5606 5598 5591 5583 5575 5568 5560 5553 5543 5532 5520 5506 5494 5482 5471 5461 5453 5446 5443 5439 5435 5431 5427 5423 5420 5417 5415
5656 5651 5646 5640 5634 5629 5623 5616 5609 5601 5594 5588 5582 5573 5565 5555 5550 5541 5530 5517 5503 5487 5474 5463 5451 5442 5435 5429 5427 5424 5420 5417 5414 5409 5405 5402 5401 5401
5644 5638 5633 5627 5621 5615 5608 5601 5594 5586 5579 5572 5565 5557 5547 5538 5528 5518 5508 5489 5478 5459 5445 5439 5428 5421 5413 5408 5405 5401 5399 5396 5394 5392 5389 5387 5388 5387
5631 5626 5620 5615 5608 5601 5594 5586 5579 5571 5563 5555 5547 5538 5528 5517 5505 5493 5482 5469 5452 5435 5428 5422 5411 5406 5396 5390 5384 5380 5377 5376 5376 5376 5374 5374 5373 5374
5618 5613 5607 5600 5593 5585 5577 5570 5562 5553 5544 5537 5529 5518 5507 5495 5483 5471 5457 5443 5438 5417 5412 5408 5396 5391 5382 5374 5367 5361 5357 5355 5356 5357 5358 5358 5359 5360
5605 5599 5592 5585 5577 5570 5562 5555 5546 5536 5526 5517 5508 5496 5488 5472 5461 5447 5434 5427 5418 5405 5396 5397 5381 5377 5365 5359 5350 5343 5339 5336 5336 5337 5340 5341 5343 5346
5592 5585 5578 5570 5562 5556 5548 5540 5532 5521 5511 5498 5487 5476 5463 5450 5438 5431 5422 5415 5404 5391 5372 5378 5366 5360 5352 5345 5333 5327 5322 5319 5317 5318 5325 5326 5327 5331
5577 5570 5563 5556 5548 5540 5533 5525 5515 5501 5490 5477 5466 5454 5442 5430 5423 5418 5407 5398 5390 5379 5356 5354 5349 5342 5336 5332 5321 5311 5306 5303 5301 5302 5308 5312 5313 5315
5562 5555 5548 5541 5533 5524 5516 5506 5496 5484 5471 5457 5444 5433 5424 5416 5409 5400 5391 5382 5370 5364 5344 5339 5332 5321 5322 5318 5312 5301 5294 5289 5287 5288 5292 5297 5299 5302
5548 5540 5532 5525 5516 5507 5497 5487 5478 5468 5454 5442 5429 5420 5412 5404 5396 5385 5373 5362 5353 5341 5328 5319 5317 5308 5301 5301 5300 5291 5284 5279 5277 5277 5279 5284 5288 5290
5534 5526 5517 5508 5498 5488 5479 5469 5459 5448 5437 5426 5417 5411 5404 5394 5384 5373 5360 5348 5337 5326 5319 5308 5302 5295 5291 5290 5288 5281 5274 5270 5269 5269 5270 5273 5277 5279
5518 5508 5498 5489 5479 5469 5460 5450 5440 5429 5420 5414 5408 5402 5395 5385 5374 5364 5350 5339 5330 5317 5306 5300 5294 5289 5283 5280 5277 5272 5270 5267 5261 5262 5264 5266 5269 5271
5499 5487 5477 5468 5459 5450 5439 5430 5421 5414 5410 5406 5401 5395 5387 5376 5364 5353 5343 5333 5325 5318 5304 5295 5290 5285 5280 5275 5271 5268 5264 5262 5259 5258 5260 5261 5262 5264
5478 5466 5455 5445 5437 5428 5420 5412 5407 5405 5403 5399 5394 5387 5378 5367 5355 5344 5336 5328 5319 5313 5307 5298 5289 5283 5277 5272 5268 5264 5262 5259 5258 5257 5256 5257 5257 5258
5453 5442 5431 5422 5414 5407 5402 5400 5401 5400 5397 5393 5387 5380 5370 5360 5350 5339 5331 5324 5317 5310 5303 5298 5292 5285 5278 5273 5269 5266 5261 5259 5256 5254 5252 5252 5251 5249
5423 5414 5407 5401 5397 5395 5396 5397 5396 5395 5391 5387 5380 5373 5364 5354 5345 5337 5330 5322 5315 5308 5301 5295 5290 5285 5280 5274 5266 5262 5261 5257 5253 5249 5246 5244 5244 5239
5403 5397 5393 5392 5393 5394 5395 5395 5393 5390 5386 5381 5375 5368 5360 5351 5343 5335 5327 5320 5314 5307 5300 5294 5288 5283 5277 5272 5267 5261 5252 5249 5246 5243 5239 5236 5234 5231
5395 5393 5393 5394 5395 5395 5394 5392 5389 5385 5381 5376 5370 5363 5355 5347 5339 5332 5325 5317 5311 5305 5299 5292 5286 5279 5273 5267 5261 5256 5250 5243 5239 5236 5233 5229 5225 5222
5401 5400 5399 5398 5397 5395 5393 5390 5386 5382 5377 5372 5367 5360 5352 5345 5337 5330 5322 5316 5309 5303 5297 5290 5283 5276 5268 5261 5255 5250 5244 5239 5233 5228 5225 5222 5219 5216
5408 5406 5403 5401 5398 5395 5391 5387 5383 5378 5374 5369 5364 5357 5350 5343 5336 5328 5320 5314 5308 5302 5296 5289 5280 5272 5265 5257 5250 5245 5240 5234 5229 5225 5219 5215 5213 5210